Temperature
25 25 24 23 26 27 28 28 29 28 28 28 27 27 26 25 24 22 22 21 20 20 19 19 19 19 19 19 19 18 18 18 18 18 18 18 18 18 18 18 18 18 18 18 18 18 18 18 18
25 24 24 26 27 27 27 28 28 28 28 28 27 26 26 24 23 22 21 21 21 20 19 19 19 19 19 19 19 18 18 18 18 18 18 18 18 18 18 18 18 18 18 18 18 18 18 18 18
25 25 26 28 29 28 28 28 28 29 28 28 27 26 25 24 23 22 21 21 21 20 20 20 19 19 19 19 19 19 18 18 18 18 18 18 18 18 18 18 18 18 18 18 18 18 18 18 18
25 27 29 30 29 29 29 29 29 29 28 28 27 25 24 23 23 22 22 21 21 20 20 20 20 19 19 19 19 19 18 18 18 18 18 18 18 18 18 18 18 18 18 18 18 18 18 18 18
26 28 29 30 30 30 30 30 29 29 28 27 26 25 24 23 22 22 22 22 21 20 20 20 20 19 19 19 19 19 18 19 18 18 18 18 18 18 18 18 18 18 18 18 18 18 18 18 18
28 31 30 30 30 30 31 30 29 29 28 27 26 25 23 23 22 22 22 22 21 20 20 20 20 19 19 19 19 19 19 19 19 19 18 18 19 18 18 18 18 18 18 18 18 18 18 18 18
30 31 32 31 30 30 30 30 29 29 29 28 26 25 24 23 23 22 22 22 21 21 20 20 20 20 19 19 19 19 19 19 19 19 19 19 19 18 18 18 18 18 18 18 18 18 19 19 19
32 33 32 32 31 30 31 30 29 29 28 28 27 26 24 23 23 23 22 22 22 21 20 20 19 19 19 19 19 19 19 19 19 19 19 19 19 18 18 18 19 19 19 18 18 18 19 19 19
33 33 32 32 31 31 31 30 29 29 28 28 27 26 24 24 23 23 22 22 22 21 21 21 20 19 19 19 19 19 19 19 19 19 19 18 18 18 18 18 19 19 19 19 18 18 19 19 19
34 33 33 33 33 32 31 31 30 29 28 27 26 25 24 24 23 23 23 22 22 21 21 21 21 20 20 19 19 19 19 19 19 19 19 18 18 18 18 19 19 19 19 19 18 19 19 19 19
35 34 34 33 33 32 32 31 30 30 28 27 26 25 24 24 24 23 23 22 22 21 21 21 20 20 20 20 19 19 19 19 19 19 19 19 19 19 19 19 19 19 18 18 18 18 19 19 19
35 34 34 33 33 32 32 31 31 30 29 27 26 25 25 24 24 24 23 22 22 21 21 21 20 20 20 20 20 19 19 19 19 19 19 19 19 19 19 19 19 19 19 18 18 18 19 19 19
35 34 34 33 33 32 32 31 31 30 28 27 26 26 25 25 24 24 23 23 22 21 21 20 20 20 20 20 20 20 19 19 19 19 19 19 19 19 19 19 19 19 19 19 19 19 19 19 19
35 35 34 33 33 33 32 31 30 29 28 28 27 26 25 25 25 24 23 22 22 21 21 20 20 19 19 20 19 19 19 19 19 19 19 19 19 19 19 19 19 19 19 19 19 19 19 19 19
34 34 33 34 34 33 32 31 31 29 29 28 27 26 26 25 25 24 23 22 22 21 21 20 20 20 20 19 20 19 19 19 19 19 19 19 19 19 19 19 19 19 19 19 19 19 19 19 19
34 33 32 33 34 33 32 30 31 30 29 28 28 27 26 26 25 24 23 23 22 21 21 21 20 20 20 20 19 19 19 19 19 19 19 19 19 19 19 19 19 19 19 19 19 19 19 19 19
32 32 32 33 35 34 32 31 31 30 30 29 28 27 27 26 25 25 24 23 22 22 21 21 20 20 20 19 19 19 19 19 19 19 19 19 19 19 19 19 19 19 19 19 19 19 19 19 19
31 32 32 33 34 34 33 32 32 31 31 30 29 28 27 26 26 25 24 23 22 22 21 21 20 20 20 19 19 19 19 19 19 19 19 19 19 19 19 19 19 19 19 19 19 19 19 19 19
33 33 33 33 35 34 33 32 32 32 31 31 30 29 28 27 26 25 25 24 23 22 21 21 20 20 20 20 19 19 19 19 19 19 19 19 19 19 19 19 19 19 19 19 19 18 19 19 19
34 33 33 34 35 35 33 33 33 33 32 31 30 29 29 28 27 26 25 24 23 22 21 21 21 20 20 20 20 20 19 19 19 19 19 19 19 19 19 19 19 19 19 19 19 19 19 19 19
34 34 33 33 34 34 33 32 32 32 32 32 31 30 29 28 27 26 25 25 24 22 22 21 21 21 21 20 20 20 20 20 20 20 20 19 19 19 19 19 19 19 19 19 19 19 18 18 18
33 34 34 34 33 32 33 30 31 31 32 32 32 31 30 29 28 27 26 25 24 23 22 22 21 21 21 20 20 20 20 20 20 20 20 19 19 19 19 19 19 19 19 19 18 18 18 18 18
34 35 34 34 33 32 32 31 30 31 31 32 32 32 31 30 29 28 27 25 25 24 23 22 22 21 21 21 20 20 20 20 20 20 20 20 19 19 19 19 19 19 19 18 18 19 18 18 18
35 34 34 34 33 31 32 31 30 30 31 32 33 32 31 31 30 28 27 26 25 24 23 22 22 22 21 21 21 21 20 20 20 20 20 20 20 19 19 19 19 19 19 19 19 18 18 18 18
34 33 31 30 30 30 31 31 31 32 33 34 33 32 31 31 30 29 28 26 25 25 24 23 22 22 22 22 21 21 21 21 20 20 20 20 20 20 19 19 19 19 19 19 18 18 18 18 18
34 33 31 30 29 30 30 30 32 34 34 34 33 32 31 31 30 29 28 27 26 25 24 24 23 22 22 22 22 21 21 21 20 20 20 20 20 20 20 19 19 19 19 18 18 18 18 18 18
33 33 33 32 31 30 31 31 33 34 34 34 33 32 31 31 30 29 28 27 26 25 24 24 23 22 22 22 22 22 21 21 21 20 20 20 20 20 20 19 19 19 19 19 18 18 18 18 18
34 34 33 32 30 30 30 31 31 32 33 33 33 33 32 31 30 29 28 27 26 25 24 24 23 23 22 22 22 21 22 21 21 20 20 20 20 20 20 20 19 19 19 19 19 18 18 18 18
34 33 33 33 32 31 30 30 32 31 32 33 33 32 32 31 30 29 28 28 26 26 25 24 23 23 23 22 22 21 21 21 21 21 20 20 20 20 20 20 19 19 19 19 19 18 18 18 18
34 34 33 32 31 31 31 30 33 32 33 33 33 32 31 31 30 29 28 27 26 26 25 24 23 23 23 22 22 22 21 21 21 21 20 20 20 20 20 19 19 19 19 19 18 18 18 18 17
Wind_Speed
10 11 9 6 3 2 13 13 14 13 13 12 12 13 16 15 11 10 8 9 10 10 10 11 11 11 12 12 12 13 14 15 16 16 16 17 18 18 18 19 20 21 21 21 21 21 20 20 20
10 11 8 4 0 8 12 12 13 13 11 12 14 16 18 17 15 11 9 8 10 10 11 12 12 12 12 12 12 13 14 15 15 16 16 17 17 17 18 19 20 20 20 20 20 20 20 19 18
12 13 6 1 8 11 12 11 12 11 11 12 15 16 13 12 13 9 10 10 11 12 14 13 13 12 12 12 12 13 13 14 15 15 15 16 17 17 18 19 19 19 19 19 19 19 18 17 16
7 6 4 4 14 14 12 10 11 11 11 11 12 11 13 12 12 12 10 10 12 13 14 14 13 13 12 12 12 13 13 14 14 14 15 16 16 16 17 18 18 18 18 18 18 18 17 15 14
9 4 1 10 15 14 12 11 11 12 12 14 16 15 14 13 13 11 10 10 11 13 14 14 13 12 12 12 12 12 12 13 13 13 14 15 15 15 16 17 17 17 17 17 17 16 15 14 12
6 4 3 10 13 13 12 11 12 12 13 15 15 15 12 11 10 9 9 9 11 13 14 14 13 12 12 12 12 12 12 12 12 13 14 14 14 14 15 16 16 16 16 15 15 14 13 11 9
8 2 7 12 12 12 11 10 11 11 11 11 13 14 11 10 9 10 10 8 10 12 12 12 12 12 12 12 11 11 11 11 12 13 14 14 14 14 15 14 14 14 14 14 13 12 11 10 7
5 2 8 11 12 12 11 11 10 11 10 9 9 10 11 11 10 10 10 8 9 10 10 10 11 11 10 11 11 11 10 10 12 12 13 14 14 14 14 14 13 13 13 12 12 11 10 8 6
2 4 8 10 11 12 11 11 11 11 11 11 12 15 14 12 11 10 9 8 7 8 8 8 9 9 9 11 11 10 10 9 10 9 11 12 10 12 12 13 13 12 12 11 10 9 8 7 6
3 6 12 12 12 12 11 11 11 10 11 13 15 16 14 12 10 9 9 9 8 7 7 7 8 7 6 8 9 8 8 8 5 7 9 7 7 10 12 13 13 12 11 10 10 9 8 7 6
7 10 12 13 12 12 10 10 10 11 11 13 14 14 12 12 9 8 9 9 8 6 6 8 9 6 6 5 5 4 5 6 5 5 6 7 7 8 9 8 10 10 10 8 9 8 7 6 4
8 10 10 11 11 10 10 10 10 11 13 14 14 13 11 10 9 9 9 9 8 6 7 8 9 7 6 5 3 3 4 4 4 6 5 5 2 3 4 3 6 6 6 5 5 4 4 3 3
7 9 10 10 10 11 11 11 12 13 15 15 14 13 12 10 9 9 9 9 8 6 7 9 8 7 5 5 3 3 4 4 5 5 5 4 3 3 3 2 1 2 4 4 2 2 2 1 2
6 7 9 9 9 10 11 11 10 13 14 14 13 12 11 10 10 10 9 8 7 6 7 8 7 7 5 3 2 2 3 4 4 5 6 4 3 3 2 2 1 1 2 3 2 2 2 2 1
5 6 6 8 8 9 11 10 10 12 14 13 12 11 11 10 10 9 9 8 8 7 7 6 6 7 5 4 1 1 2 4 4 4 6 5 3 3 2 1 2 1 2 2 2 1 1 1 1
5 5 4 6 7 9 6 8 12 14 13 13 12 11 10 9 10 10 10 9 8 8 7 5 5 7 6 4 1 1 2 3 3 4 6 6 4 3 2 1 1 2 2 2 1 1 1 0 1
6 7 8 6 6 8 6 9 13 14 13 13 12 12 11 10 10 10 11 10 9 8 8 6 5 7 6 4 3 1 2 2 1 3 3 5 6 5 3 2 1 2 1 1 1 1 0 0 1
7 6 7 6 6 7 8 10 13 14 13 13 13 13 12 12 11 11 11 12 10 9 8 7 6 6 5 5 3 1 2 2 1 2 2 3 3 4 3 2 3 1 1 1 1 1 1 1 2
11 7 4 4 6 5 7 10 12 15 13 13 13 13 13 13 13 12 12 12 12 10 9 7 6 6 4 3 3 3 3 2 2 2 3 3 2 2 1 0 2 1 1 1 1 1 1 2 1
11 8 4 5 5 4 4 6 9 13 14 14 14 14 14 14 13 13 12 12 12 11 10 8 7 7 6 4 3 3 3 2 3 2 4 3 2 1 2 2 1 1 1 1 1 1 1 1 1
11 7 5 5 5 5 5 5 8 11 12 13 13 13 14 15 15 15 14 13 13 12 11 10 8 7 6 6 4 2 2 1 2 3 3 3 2 2 0 2 0 0 1 1 2 1 2 1 1
9 6 7 8 7 6 9 5 7 10 11 13 13 13 14 14 15 15 15 14 14 13 12 10 9 8 7 6 5 4 3 3 2 2 3 3 2 2 2 2 1 0 1 1 1 2 1 1 2
10 6 8 10 10 9 9 5 5 7 10 12 13 13 14 15 15 15 15 14 14 14 13 11 10 9 8 6 5 4 4 3 2 3 4 3 3 2 2 2 1 1 0 1 1 1 0 1 2
11 9 9 11 11 11 8 5 6 9 12 12 12 12 12 14 15 15 15 14 13 14 14 14 12 10 9 8 7 6 4 3 2 3 3 3 3 3 3 3 2 1 0 1 0 0 1 1 2
13 11 8 9 9 8 7 7 6 10 12 12 11 12 12 13 14 14 15 15 13 14 14 13 13 11 10 9 8 7 5 5 4 4 4 3 3 3 3 3 3 2 1 1 1 1 1 1 2
14 14 11 10 8 7 9 7 6 9 9 10 10 11 13 12 13 13 14 14 14 14 13 13 13 11 10 9 8 7 7 5 4 5 3 3 2 3 4 4 3 3 2 2 2 2 2 1 2
15 14 14 13 12 9 6 7 7 8 9 9 10 11 13 13 13 14 14 15 14 13 12 12 13 11 10 9 8 7 6 6 5 4 5 3 2 3 4 4 4 3 3 1 1 2 2 1 2
18 15 11 12 9 9 8 7 4 5 7 8 9 10 12 12 12 13 14 14 14 13 12 11 12 11 9 9 9 8 7 6 4 3 4 3 3 2 3 4 4 4 4 3 3 3 3 2 2
17 16 13 10 10 9 7 5 4 6 7 8 7 8 9 12 12 12 13 13 13 13 14 12 12 11 10 9 8 6 7 7 6 5 4 4 3 3 3 4 4 4 4 4 3 4 3 3 3
16 17 16 11 9 9 8 5 5 5 6 8 8 8 7 8 10 10 12 12 12 12 13 13 12 11 10 9 8 7 6 6 6 6 5 5 5 5 4 4 4 5 4 4 4 5 3 3 3
Wind_Direction
197 213 218 238 254 69 63 64 65 67 67 62 61 67 61 56 70 91 101 96 98 95 94 82 71 69 69 67 69 70 70 72 81 89 90 91 93 96 97 97 100 104 105 106 107 108 110 111 112
222 225 229 250 339 68 66 61 65 66 72 75 72 72 70 70 81 95 96 95 96 93 88 84 79 75 73 72 71 74 75 76 83 90 92 93 94 97 99 100 102 104 106 107 108 109 111 112 114
251 251 257 228 59 69 73 69 74 72 71 78 75 66 67 78 84 99 110 104 96 91 92 91 85 81 79 79 77 77 79 79 83 91 95 96 96 98 100 102 104 105 106 107 108 110 111 113 116
255 245 247 73 71 72 79 81 84 82 77 79 82 75 71 79 95 107 114 107 102 101 97 95 91 87 85 84 81 80 81 83 84 91 96 98 99 101 102 103 104 105 106 107 108 110 112 113 116
250 264 123 77 77 79 80 83 83 79 79 79 84 89 83 85 96 107 109 104 104 102 101 100 98 94 91 88 83 84 87 89 90 94 100 102 103 103 105 105 105 106 106 107 108 110 113 114 117
262 248 105 86 85 85 84 82 81 82 88 95 98 98 96 105 107 110 105 100 104 106 105 108 108 103 96 93 88 89 93 93 96 100 106 106 106 106 107 108 108 108 109 110 112 115 117 119 124
261 311 84 94 96 90 89 87 87 89 91 100 109 105 110 114 114 109 99 98 102 107 112 121 118 110 105 100 95 99 101 102 107 111 116 116 116 112 112 113 113 114 115 115 118 121 125 128 135
271 359 69 88 97 94 96 93 92 91 86 100 108 111 119 123 123 114 112 103 99 107 113 119 124 128 126 114 111 114 114 114 118 122 127 129 127 125 125 121 119 120 122 124 126 131 136 144 159
305 40 73 87 98 104 106 102 97 95 92 83 83 104 119 126 122 121 117 107 98 97 101 112 113 127 128 120 122 130 126 127 133 136 143 148 145 136 131 123 129 131 133 137 140 144 152 163 185
68 65 74 86 99 108 110 114 115 109 100 97 95 104 118 125 128 128 123 116 104 96 100 96 91 88 103 112 131 143 131 136 146 137 149 160 134 124 124 136 142 145 147 152 161 166 176 192 200
66 75 81 92 104 111 113 115 124 122 117 116 118 123 129 132 133 125 114 109 106 108 94 94 91 83 86 92 120 126 121 132 135 113 120 121 122 130 134 148 154 161 162 170 166 183 200 197 197
82 83 90 96 106 109 106 102 96 100 113 121 126 132 133 136 134 124 117 112 113 108 97 90 91 82 62 65 86 109 112 121 118 122 124 115 118 120 129 142 154 162 163 167 172 191 186 181 192
98 101 101 105 109 107 106 99 100 106 115 124 130 138 140 141 134 125 118 117 114 109 104 90 91 83 70 57 33 81 85 102 110 113 99 110 115 101 100 97 119 152 146 157 162 154 152 167 227
112 112 118 119 122 122 113 110 112 120 127 131 137 143 148 145 141 131 129 127 125 125 113 108 110 107 98 90 40 47 97 100 105 112 115 102 100 103 109 136 119 107 139 154 171 181 180 185 177
125 132 131 137 145 132 126 121 130 137 139 141 145 151 151 151 144 142 142 142 139 133 122 122 126 119 123 122 118 111 108 117 111 115 124 123 120 130 143 170 158 186 169 147 170 197 173 190 155
187 177 162 167 161 150 166 136 144 150 150 151 155 156 156 154 154 152 146 148 148 144 133 141 137 127 131 125 104 52 74 101 125 134 141 146 159 151 163 166 171 198 180 159 175 199 196 107 131
228 212 190 175 173 155 170 143 149 158 158 160 163 162 163 164 166 159 154 154 151 140 137 144 125 128 137 142 143 130 85 83 107 129 136 153 162 158 180 180 170 216 169 147 210 100 74 167 161
235 227 189 177 174 163 154 149 159 167 168 168 170 168 171 173 176 166 162 156 152 144 143 149 143 137 144 148 155 152 126 128 134 122 124 137 159 162 189 183 176 211 152 131 91 97 234 202 222
241 240 195 181 176 178 161 161 171 172 176 173 173 174 176 176 175 169 167 162 157 150 151 155 154 149 157 159 159 162 155 173 167 164 140 144 176 160 173 58 139 210 150 148 175 172 206 209 185
252 258 225 190 193 194 180 170 181 179 182 179 177 178 178 175 172 169 171 169 164 158 157 157 165 161 167 165 165 171 168 177 164 148 133 151 161 180 164 169 212 165 169 194 192 159 231 237 175
250 252 250 233 224 237 209 193 192 190 187 180 181 180 179 179 175 173 176 175 170 164 166 172 170 165 172 170 174 182 160 191 160 151 144 153 165 166 114 132 239 300 238 163 197 218 233 241 237
246 245 246 255 246 246 241 223 200 194 193 187 183 183 182 179 176 177 178 179 174 168 170 165 166 167 171 176 183 191 177 183 183 164 149 159 174 167 162 150 166 99 327 97 213 132 271 260 267
253 250 253 258 257 256 246 246 204 182 208 195 186 187 184 180 176 176 176 174 175 172 170 167 166 169 170 182 187 191 198 195 186 161 146 161 169 171 154 154 146 126 315 60 40 24 328 288 302
254 251 253 257 261 258 264 252 211 193 205 194 185 184 183 178 173 172 172 168 175 173 170 169 166 170 173 181 188 191 207 204 205 181 168 182 175 169 174 166 147 147 182 123 81 295 266 332 329
237 239 239 240 242 254 270 257 212 202 195 181 180 178 178 178 169 170 169 169 175 174 173 169 165 171 177 183 190 191 201 209 217 213 195 198 190 167 170 172 149 164 201 191 190 207 241 269 287
233 237 241 244 242 229 232 240 213 190 170 159 162 174 172 177 166 167 167 169 174 175 171 167 165 171 179 185 188 192 194 208 216 213 218 204 193 172 160 163 162 175 209 223 204 223 228 216 266
236 237 248 257 258 263 235 228 203 170 165 164 163 171 176 175 169 166 167 168 171 171 169 167 162 170 180 184 182 190 190 209 222 202 205 213 197 189 162 167 175 182 196 234 248 230 249 235 257
236 243 241 250 257 258 250 249 207 193 182 178 173 171 169 168 171 169 166 168 170 168 164 168 162 172 180 184 188 190 191 203 219 213 201 198 200 204 177 180 183 186 186 195 228 243 235 216 222
224 235 243 250 258 257 254 248 219 188 186 173 172 161 167 167 172 170 163 165 163 166 166 167 165 170 177 185 186 195 184 192 198 201 202 195 197 199 201 201 198 197 197 199 213 238 223 222 230
233 232 237 243 253 261 265 248 193 186 194 164 162 153 148 160 160 158 158 156 162 166 169 168 168 174 179 181 179 189 186 187 195 199 200 198 202 202 203 204 209 213 205 203 211 234 229 225 232
Height
1471 1471 1471 1474 1473 1473 1476 1473 1470 1472 1473 1476 1476 1477 1481 1484 1490 1502 1503 1502 1502 1501 1500 1499 1498 1497 1496 1495 1494 1494 1492 1491 1491 1492 1493 1494 1495 1497 1499 1500 1502 1504 1507 1510 1512 1515 1517 1519 1522
1471 1472 1474 1472 1473 1482 1483 1473 1474 1474 1476 1478 1479 1481 1485 1490 1495 1500 1502 1503 1503 1503 1502 1501 1500 1499 1498 1498 1497 1497 1496 1495 1495 1496 1497 1498 1500 1501 1503 1504 1506 1509 1511 1513 1516 1518 1520 1523 1525
1471 1473 1474 1468 1470 1479 1482 1475 1475 1476 1478 1479 1482 1486 1490 1495 1499 1501 1504 1504 1505 1504 1503 1502 1502 1501 1501 1500 1500 1499 1499 1499 1499 1500 1501 1502 1503 1505 1507 1508 1510 1512 1515 1517 1519 1521 1523 1526 1528
1472 1472 1469 1466 1473 1472 1474 1474 1475 1477 1479 1481 1484 1490 1496 1499 1501 1503 1505 1506 1506 1506 1505 1504 1504 1503 1503 1502 1502 1502 1502 1502 1502 1503 1504 1505 1507 1509 1511 1512 1514 1516 1518 1520 1522 1524 1527 1529 1531
1473 1470 1468 1470 1472 1471 1472 1474 1476 1479 1481 1485 1489 1495 1500 1503 1504 1505 1507 1507 1508 1508 1507 1506 1506 1505 1505 1505 1504 1504 1505 1505 1505 1506 1507 1508 1510 1512 1514 1515 1517 1519 1521 1524 1526 1528 1530 1532 1534
1472 1465 1471 1476 1475 1472 1473 1476 1478 1481 1484 1488 1492 1497 1503 1505 1506 1507 1508 1509 1509 1509 1509 1508 1508 1507 1507 1507 1507 1507 1507 1507 1508 1509 1510 1512 1513 1515 1517 1519 1521 1523 1525 1527 1529 1531 1533 1535 1537
1469 1463 1466 1470 1475 1476 1476 1478 1480 1483 1485 1488 1492 1497 1503 1506 1507 1509 1509 1510 1511 1511 1511 1510 1510 1510 1509 1509 1509 1509 1510 1510 1511 1512 1513 1515 1517 1518 1520 1522 1524 1526 1528 1530 1532 1533 1535 1537 1539
1462 1461 1465 1468 1475 1478 1477 1480 1482 1485 1488 1491 1492 1497 1503 1507 1509 1510 1511 1512 1513 1513 1513 1513 1513 1512 1511 1511 1510 1511 1512 1513 1514 1515 1517 1518 1520 1522 1523 1525 1527 1528 1530 1532 1534 1536 1538 1540 1542
1461 1464 1470 1469 1473 1476 1477 1481 1484 1487 1490 1492 1494 1498 1504 1508 1510 1511 1512 1514 1515 1515 1516 1516 1516 1515 1514 1513 1513 1514 1515 1516 1517 1518 1520 1521 1523 1525 1526 1528 1530 1531 1533 1535 1537 1539 1540 1542 1544
1459 1467 1467 1465 1468 1473 1477 1480 1484 1488 1491 1495 1499 1503 1506 1509 1511 1512 1513 1515 1516 1517 1517 1518 1518 1518 1517 1517 1516 1517 1518 1518 1520 1521 1523 1524 1526 1528 1529 1531 1532 1534 1535 1537 1539 1541 1542 1543 1545
1459 1463 1463 1466 1470 1474 1477 1479 1483 1486 1492 1496 1501 1505 1508 1510 1512 1513 1514 1516 1517 1518 1519 1519 1519 1519 1519 1519 1519 1520 1520 1521 1522 1523 1525 1527 1529 1530 1531 1533 1534 1536 1537 1539 1540 1542 1543 1545 1546
1461 1463 1465 1468 1471 1474 1476 1479 1482 1486 1492 1497 1502 1506 1508 1510 1512 1514 1515 1517 1519 1519 1520 1520 1520 1520 1520 1521 1521 1522 1522 1523 1524 1525 1527 1528 1530 1532 1533 1534 1535 1537 1538 1540 1541 1543 1545 1546 1547
1462 1464 1467 1470 1472 1475 1477 1481 1485 1490 1494 1498 1503 1506 1509 1511 1513 1515 1516 1518 1519 1520 1521 1521 1521 1521 1521 1522 1523 1524 1524 1525 1526 1527 1528 1530 1531 1533 1535 1536 1537 1539 1540 1541 1542 1544 1545 1546 1547
1463 1464 1467 1470 1472 1475 1478 1483 1487 1492 1495 1499 1503 1506 1509 1511 1513 1515 1517 1519 1520 1521 1522 1522 1523 1522 1523 1524 1524 1525 1526 1527 1528 1529 1530 1531 1532 1534 1535 1537 1538 1540 1541 1542 1543 1544 1545 1546 1546
1464 1467 1468 1469 1471 1474 1478 1485 1487 1491 1495 1499 1503 1506 1508 1511 1513 1515 1517 1519 1520 1522 1523 1523 1524 1524 1524 1525 1526 1527 1528 1529 1529 1530 1531 1532 1533 1535 1536 1538 1539 1540 1541 1542 1543 1544 1545 1545 1546
1465 1471 1478 1469 1467 1471 1478 1491 1486 1490 1494 1497 1501 1505 1508 1510 1512 1515 1516 1518 1520 1521 1523 1524 1525 1525 1525 1526 1527 1528 1529 1530 1531 1531 1532 1533 1534 1535 1536 1538 1539 1540 1541 1542 1543 1543 1544 1545 1545
1472 1479 1479 1470 1463 1466 1474 1484 1483 1487 1491 1495 1499 1503 1506 1509 1511 1514 1516 1518 1520 1521 1522 1524 1526 1526 1526 1527 1528 1529 1530 1531 1532 1533 1533 1534 1535 1536 1537 1538 1539 1540 1541 1542 1542 1543 1543 1544 1544
1479 1475 1473 1470 1462 1463 1470 1477 1479 1483 1487 1491 1496 1500 1504 1507 1510 1512 1515 1517 1519 1520 1522 1524 1525 1526 1527 1528 1529 1530 1531 1532 1533 1533 1534 1534 1535 1536 1537 1538 1539 1540 1541 1541 1542 1542 1543 1543 1543
1462 1466 1469 1465 1458 1461 1468 1473 1475 1478 1483 1487 1491 1496 1500 1504 1507 1510 1513 1516 1518 1519 1521 1523 1524 1526 1527 1528 1529 1530 1531 1532 1533 1534 1534 1534 1535 1536 1537 1538 1539 1539 1540 1541 1541 1541 1542 1542 1543
1459 1464 1466 1462 1456 1460 1467 1470 1470 1473 1477 1482 1486 1491 1496 1500 1504 1508 1511 1514 1516 1518 1520 1522 1523 1525 1526 1528 1530 1531 1532 1532 1533 1534 1534 1534 1535 1536 1537 1537 1538 1539 1539 1540 1540 1541 1541 1542 1542
1459 1462 1465 1465 1459 1459 1466 1475 1473 1471 1473 1478 1482 1486 1491 1496 1500 1504 1508 1511 1514 1516 1518 1520 1522 1524 1526 1528 1529 1531 1532 1532 1533 1534 1534 1534 1535 1536 1536 1537 1537 1538 1538 1539 1539 1539 1540 1540 1541
1463 1455 1457 1461 1467 1473 1469 1488 1477 1472 1471 1473 1477 1482 1486 1491 1495 1500 1504 1508 1511 1513 1516 1518 1520 1522 1524 1527 1528 1530 1531 1532 1533 1533 1534 1534 1535 1536 1536 1537 1537 1537 1537 1538 1538 1538 1538 1539 1539
1454 1451 1454 1457 1463 1470 1469 1480 1481 1470 1475 1471 1472 1477 1481 1486 1491 1496 1500 1505 1508 1511 1514 1516 1518 1521 1523 1525 1527 1528 1530 1531 1532 1533 1534 1534 1534 1535 1536 1536 1536 1536 1536 1537 1537 1537 1537 1537 1538
1448 1452 1455 1458 1464 1482 1473 1479 1486 1472 1469 1466 1468 1472 1477 1481 1487 1492 1497 1502 1506 1509 1512 1514 1516 1519 1521 1523 1525 1527 1528 1530 1531 1532 1533 1533 1534 1534 1535 1535 1535 1535 1535 1535 1535 1536 1536 1536 1536
1450 1463 1481 1489 1489 1490 1472 1476 1474 1457 1454 1457 1463 1468 1475 1479 1484 1489 1494 1498 1502 1506 1509 1512 1514 1516 1519 1521 1523 1525 1527 1528 1530 1531 1532 1533 1533 1533 1533 1534 1534 1534 1534 1534 1534 1535 1535 1535 1535
1450 1457 1480 1495 1496 1488 1476 1477 1461 1448 1449 1454 1459 1465 1471 1476 1480 1485 1490 1495 1499 1503 1507 1510 1512 1514 1517 1519 1521 1523 1525 1527 1528 1529 1530 1531 1532 1532 1533 1533 1533 1533 1533 1533 1533 1533 1533 1533 1533
1452 1454 1451 1465 1473 1482 1477 1465 1451 1445 1448 1453 1457 1463 1468 1472 1477 1482 1487 1492 1497 1501 1504 1507 1510 1513 1515 1517 1519 1521 1523 1525 1526 1527 1528 1529 1530 1531 1531 1531 1531 1531 1531 1531 1532 1532 1532 1532 1532
1440 1443 1453 1464 1481 1491 1480 1472 1466 1456 1453 1452 1455 1459 1464 1469 1474 1479 1484 1489 1494 1498 1502 1505 1508 1511 1513 1515 1517 1519 1521 1523 1524 1525 1526 1527 1528 1529 1529 1529 1529 1529 1529 1529 1530 1530 1530 1530 1530
1442 1446 1450 1454 1459 1479 1489 1481 1451 1452 1450 1451 1454 1458 1462 1467 1473 1476 1481 1486 1491 1495 1499 1502 1506 1508 1510 1513 1515 1518 1519 1520 1521 1522 1524 1525 1525 1526 1526 1527 1527 1527 1527 1528 1528 1528 1528 1528 1528
1433 1439 1445 1461 1465 1462 1473 1473 1445 1447 1446 1448 1452 1457 1462 1466 1470 1475 1479 1483 1488 1492 1497 1500 1503 1505 1507 1510 1512 1515 1516 1518 1519 1520 1521 1522 1522 1523 1524 1524 1524 1525 1525 1525 1525 1526 1526 1526 1526